This demonstration page uses our WeatherBlox Daily Observations layout. Learn more.

39.29038, -76.61219

Hourly Observations for July 11, 2015

Temp ( °F °C ) Dew Point ( °F °C ) Humidity (%) Winds ( mph kmh ) Pressure ( in mb ) Visibility ( mi km ) Precip ( " mm )
12:54 am 00:54 undefined 80 26.7 63 17.2 56 56 undefined N/A 30.04 1017 N/A 0 0
1:54 am 01:54 undefined 79 26.1 63 17.2 58 58 undefined N/A 30.04 1017 N/A 0 0
2:54 am 02:54 undefined 78 25.6 63 17.2 60 60 undefined N/A 30.03 1017 N/A 0 0
3:54 am 03:54 undefined 77 25 64 17.8 64 64 undefined N/A 30.03 1017 N/A 0 0
4:54 am 04:54 Cloudy 76 24.4 64 17.8 67 67 undefined N/A 30.04 1017 N/A 0 0
5:54 am 05:54 Mostly Cloudy 75 23.9 64 17.8 69 69 undefined N/A 30.05 1018 1.25 2.01168 0 0
6:54 am 06:54 Sunny 75 23.9 62 16.7 64 64 undefined N/A 30.04 1017 N/A 0 0
7:54 am 07:54 Cloudy 75 23.9 60 15.6 60 60 undefined N/A 30.09 1019 N/A 0 0
8:54 am 08:54 Mostly Cloudy 75 23.9 69 20.6 82 82 undefined N/A 29.96 1015 N/A 0 0
9:54 am 09:54 Sunny 74 23.6 43 6.2 33 33 undefined N/A 29.95 1014 N/A 0 0
10:54 am 10:54 Sunny 72 22 47 8.1 41 41 undefined N/A 30 1016 N/A 0 0
11:54 am 11:54 Mostly Sunny 82 27.8 58 14.4 44 44 undefined N/A 30.09 1019 N/A 0 0
12:54 pm 12:54 Mostly Sunny 84 28.9 57 13.9 40 40 undefined N/A 30.09 1019 N/A 0 0
1:54 pm 13:54 Mostly Cloudy 84 28.9 61 16.1 46 46 undefined N/A 30.08 1019 N/A 0 0
2:54 pm 14:54 Mostly Sunny 97 36.1 72 22.2 45 45 undefined N/A 30.12 1020 N/A 0 0
3:54 pm 15:54 Mostly Cloudy 84 28.9 59 15 43 43 undefined N/A 30.06 1018 N/A 0 0
4:54 pm 16:54 undefined 86 30 53 11.7 32 32 undefined N/A 30.06 1018 N/A 0 0
5:54 pm 17:54 Mostly Cloudy 85 29.4 52 11.1 32 32 undefined N/A 30.06 1018 N/A 0 0
6:54 pm 18:54 undefined 84 28.9 55 12.8 37 37 undefined N/A 30.06 1018 N/A 0 0
7:54 pm 19:54 Mostly Sunny 83 28.3 55 12.8 38 38 undefined N/A 30.06 1018 N/A 0 0
8:54 pm 20:54 undefined 82 27.8 55 12.8 40 40 undefined N/A 30.07 1018 N/A 0 0
9:54 pm 21:54 undefined 80 26.7 55 12.8 42 42 undefined N/A 30.08 1019 N/A 0 0
10:54 pm 22:54 Partly Cloudy 83 28.3 73 22.7 72 72 undefined N/A 28.06 950 N/A 0 0
11:54 pm 23:54 Cloudy 78 25.6 58 14.4 50 50 undefined N/A 30.07 1018 N/A 0 0

Powered by AerisWeather